SCP
0 0 0 0 0 0 0 0 0 0 0 0 0 0 -0 0 0 0 0 0 0 0 0 0 0 0 0 0 0 0 0 0
0 0 0 0 0 0 0 0 0 0 0 0 0 -0 -0 0 0 0 0 0 0 0 0 0 0 0 0 0 0 0 0 0
0 0 0 0 0 0 0 0 0 0 0 0 0 0 0 0 0 0 0 0 0 0 0 0 0 0 0 0 0 0 0 0
0 0 0 0 0 0 0 0 0 0 0 0 0 0 0 0 0 0 0 0 0 0 0 0 0 0 0 0 0 0 0 0
0 0 0 0 0 0 0 0 0 0 0 0 0 0 0 0 0 0 0 0 0 0 0 0 0 0 0 0 0 0 0 0
0 0 0 0 0 0 0 0 1 0 0 0 0 0 0 0 0 0 0 0 0 0 0 0 0 0 0 0 0 0 0 0
0 0 0 0 0 0 0 0 1 1 1 1 0 0 0 0 0 0 0 0 0 0 0 0 0 0 0 0 0 0 0 0
0 0 0 0 0 0 0 0 0 1 1 1 1 1 1 0 0 0 0 0 0 0 0 0 0 0 0 0 0 0 0 0
0 0 0 0 0 0 0 0 0 1 1 1 1 1 1 0 0 0 0 0 0 0 0 0 0 0 0 0 0 0 0 0
0 0 0 0 0 0 0 0 0 1 1 1 1 1 1 1 0 0 0 0 0 0 0 0 0 0 0 0 0 0 0 0
0 0 0 -0 0 0 0 0 0 0 0 0 0 0 0 0 0 0 0 0 0 0 0 0 0 0 0 0 0 0 0 0
0 -0 -0 0 0 0 0 0 0 0 0 0 0 0 0 0 0 0 0 0 0 0 0 0 0 0 0 0 0 0 0 0
0 -0 0 0 0 0 0 0 0 0 0 0 0 0 0 0 0 0 0 0 0 0 0 0 0 0 0 0 0 0 0 0
0 0 0 0 0 0 0 0 0 0 0 0 0 0 0 0 0 0 0 0 0 0 0 0 0 0 0 0 0 0 0 0
0 0 0 0 0 0 0 0 0 0 0 0 0 0 0 0 0 0 0 0 0 0 0 0 0 0 0 0 0 0 0 0
0 -0 0 0 0 0 0 0 0 0 0 0 0 0 0 0 0 0 0 0 0 0 0 0 0 0 0 0 0 0 0 0
-0 -0 -0 0 0 0 0 0 0 0 0 0 0 0 0 0 0 0 0 0 0 0 0 0 0 0 0 0 0 0 0 0
-0 -0 0 0 0 0 0 0 0 0 0 0 0 0 0 0 0 0 0 0 0 0 0 0 0 0 0 0 0 0 0 0
0 -0 0 0 0 0 0 0 0 0 0 0 0 0 0 0 0 0 0 0 0 0 0 0 0 0 0 0 0 0 0 0
Wind_Speed_500mb
60 68 85 82 84 85 80 77 74 74 78 81 80 80 80 79 77 76 75 75 74 73 72 70 65 65 63 61 59 55 53 47
58 65 72 85 93 97 95 93 90 86 83 87 89 88 85 84 82 82 81 80 79 78 78 76 73 73 71 66 62 59 59 51
53 57 63 80 78 80 94 92 96 90 85 82 87 86 86 83 84 84 83 83 83 82 81 80 79 78 78 75 71 68 64 58
54 57 53 58 64 70 72 65 72 75 70 77 80 84 87 89 90 87 85 82 81 79 78 78 77 79 82 81 79 76 73 65
55 57 49 55 58 58 60 67 71 72 72 76 76 73 80 82 85 86 86 82 78 73 73 74 75 74 76 78 78 80 77 78
58 63 60 58 58 64 67 69 75 79 79 81 82 84 79 83 81 76 76 76 73 69 68 70 74 76 73 73 74 76 80 82
46 54 56 57 47 47 51 68 86 86 84 82 84 87 82 77 75 74 71 69 63 62 63 65 67 76 78 76 76 79 78 81
52 45 45 48 48 51 52 59 78 90 89 87 83 85 78 67 67 69 66 65 60 57 55 58 64 72 71 75 80 82 82 77
58 49 48 55 57 56 57 57 69 85 86 78 78 75 68 64 59 60 61 59 55 49 48 49 50 56 59 63 69 74 79 77
56 50 49 65 75 73 63 61 70 78 78 71 67 66 65 58 53 51 54 52 48 46 47 46 46 47 51 55 61 63 67 71
46 55 63 83 72 70 68 57 59 67 70 61 61 62 56 53 51 52 50 45 43 44 43 44 44 47 50 52 54 59 61 63
41 51 71 71 53 55 57 56 62 67 61 61 63 58 54 52 49 46 42 43 42 42 43 44 49 46 50 54 55 57 57 58
43 48 61 45 47 52 59 64 65 65 67 64 59 55 55 50 45 42 40 42 42 42 44 48 51 47 50 48 48 49 50 56
68 62 58 45 40 50 65 71 71 69 66 62 59 58 52 46 42 38 38 38 41 45 48 47 44 44 43 47 48 53 55 56
60 48 51 40 34 43 66 71 70 70 66 60 57 53 49 43 37 37 36 35 34 30 31 33 37 40 43 46 48 48 53 55
68 49 49 44 34 39 62 67 70 69 67 60 54 52 48 45 42 41 37 35 33 31 32 35 35 39 39 38 42 43 47 46
64 67 57 43 40 46 63 74 78 75 68 64 59 58 52 48 47 43 41 36 32 33 32 33 36 33 36 39 45 48 44 35
59 52 50 61 56 48 62 81 80 78 76 71 67 65 58 54 48 43 39 33 28 26 25 28 31 36 43 45 45 45 36 34
80 72 62 54 60 66 65 69 98 93 86 80 73 68 60 57 47 43 40 35 27 27 29 30 37 39 42 41 39 38 40 40
Wind_Direction_500mb
249 245 246 242 241 241 242 245 248 243 239 239 239 238 238 238 238 238 237 238 237 238 239 240 238 240 240 239 240 239 242 249
265 256 252 248 243 243 245 246 249 248 243 240 240 241 239 239 240 241 241 240 241 241 242 243 242 242 244 244 245 243 242 243
257 254 253 251 240 239 244 247 245 249 249 246 241 241 242 243 243 243 243 243 243 243 245 247 247 245 245 245 243 245 246 241
246 249 245 231 238 240 240 240 238 240 242 240 237 238 242 243 243 243 244 245 246 246 245 248 251 250 247 248 246 244 246 244
235 237 239 223 232 240 242 238 236 234 236 239 238 239 237 240 242 244 245 246 245 246 246 247 250 254 251 248 250 247 245 246
232 226 236 233 238 245 246 243 236 235 236 238 239 237 242 245 248 250 250 250 249 248 248 247 249 252 255 253 251 249 246 247
235 234 237 237 237 249 250 251 240 234 233 236 238 239 241 246 250 251 253 256 257 257 254 251 252 252 254 256 255 254 249 246
243 242 245 251 261 267 270 266 238 232 232 235 238 239 241 246 247 249 253 257 259 261 262 261 258 258 260 260 258 256 256 253
251 262 273 276 269 269 271 266 234 228 231 233 235 237 240 239 241 246 251 254 257 258 262 267 266 268 265 264 262 262 257 257
266 271 290 285 269 265 266 258 233 231 229 228 228 230 229 235 241 245 250 251 251 250 255 262 265 261 267 265 264 263 260 260
269 285 286 298 267 252 258 243 229 227 224 221 219 219 227 235 240 243 244 247 245 241 244 251 256 261 262 259 264 261 261 263
296 310 303 288 252 242 249 225 218 217 212 209 213 220 226 231 234 236 236 239 238 237 244 256 253 261 265 258 261 260 262 259
290 301 319 296 257 243 234 215 209 204 204 208 214 218 221 223 227 228 232 237 237 236 243 250 256 261 265 263 265 264 265 262
305 300 313 309 275 246 219 207 201 202 207 208 209 212 214 216 220 224 232 236 239 240 242 248 256 260 268 261 263 266 267 261
295 304 309 308 287 239 211 204 204 205 205 208 209 209 210 211 216 223 229 229 232 234 235 244 257 263 265 263 261 262 254 236
295 302 309 297 276 232 210 208 209 209 211 209 208 208 206 208 212 214 214 214 216 221 229 236 244 253 256 256 249 245 213 204
314 310 299 284 269 238 218 216 214 213 212 210 206 206 203 205 209 203 203 207 212 220 230 243 252 249 250 241 224 206 202 200
308 318 308 294 287 277 249 232 225 222 217 213 210 209 205 205 201 199 202 205 205 217 232 244 234 236 222 200 196 200 204 203
289 292 300 304 301 287 276 257 239 231 226 219 215 214 212 210 201 200 203 205 206 206 227 228 230 218 207 208 210 205 201 196
Wind_Speed_850mb
60 68 85 82 84 85 80 77 74 74 78 81 80 80 80 79 77 76 75 75 74 73 72 70 65 65 63 61 59 55 53 47
58 65 72 85 93 97 95 93 90 86 83 87 89 88 85 84 82 82 81 80 79 78 78 76 73 73 71 66 62 59 59 51
53 57 63 80 78 80 94 92 96 90 85 82 87 86 86 83 84 84 83 83 83 82 81 80 79 78 78 75 71 68 64 58
54 57 53 58 64 70 72 65 72 75 70 77 80 84 87 89 90 87 85 82 81 79 78 78 77 79 82 81 79 76 73 65
55 57 49 55 58 58 60 67 71 72 72 76 76 73 80 82 85 86 86 82 78 73 73 74 75 74 76 78 78 80 77 78
58 63 60 58 58 64 67 69 75 79 79 81 82 84 79 83 81 76 76 76 73 69 68 70 74 76 73 73 74 76 80 82
46 54 56 57 47 47 51 68 86 86 84 82 84 87 82 77 75 74 71 69 63 62 63 65 67 76 78 76 76 79 78 81
52 45 45 48 48 51 52 59 78 90 89 87 83 85 78 67 67 69 66 65 60 57 55 58 64 72 71 75 80 82 82 77
58 49 48 55 57 56 57 57 69 85 86 78 78 75 68 64 59 60 61 59 55 49 48 49 50 56 59 63 69 74 79 77
56 50 49 65 75 73 63 61 70 78 78 71 67 66 65 58 53 51 54 52 48 46 47 46 46 47 51 55 61 63 67 71
46 55 63 83 72 70 68 57 59 67 70 61 61 62 56 53 51 52 50 45 43 44 43 44 44 47 50 52 54 59 61 63
41 51 71 71 53 55 57 56 62 67 61 61 63 58 54 52 49 46 42 43 42 42 43 44 49 46 50 54 55 57 57 58
43 48 61 45 47 52 59 64 65 65 67 64 59 55 55 50 45 42 40 42 42 42 44 48 51 47 50 48 48 49 50 56
68 62 58 45 40 50 65 71 71 69 66 62 59 58 52 46 42 38 38 38 41 45 48 47 44 44 43 47 48 53 55 56
60 48 51 40 34 43 66 71 70 70 66 60 57 53 49 43 37 37 36 35 34 30 31 33 37 40 43 46 48 48 53 55
68 49 49 44 34 39 62 67 70 69 67 60 54 52 48 45 42 41 37 35 33 31 32 35 35 39 39 38 42 43 47 46
64 67 57 43 40 46 63 74 78 75 68 64 59 58 52 48 47 43 41 36 32 33 32 33 36 33 36 39 45 48 44 35
59 52 50 61 56 48 62 81 80 78 76 71 67 65 58 54 48 43 39 33 28 26 25 28 31 36 43 45 45 45 36 34
80 72 62 54 60 66 65 69 98 93 86 80 73 68 60 57 47 43 40 35 27 27 29 30 37 39 42 41 39 38 40 40
Wind_Direction_850mb
249 245 246 242 241 241 242 245 248 243 239 239 239 238 238 238 238 238 237 238 237 238 239 240 238 240 240 239 240 239 242 249
265 256 252 248 243 243 245 246 249 248 243 240 240 241 239 239 240 241 241 240 241 241 242 243 242 242 244 244 245 243 242 243
257 254 253 251 240 239 244 247 245 249 249 246 241 241 242 243 243 243 243 243 243 243 245 247 247 245 245 245 243 245 246 241
246 249 245 231 238 240 240 240 238 240 242 240 237 238 242 243 243 243 244 245 246 246 245 248 251 250 247 248 246 244 246 244
235 237 239 223 232 240 242 238 236 234 236 239 238 239 237 240 242 244 245 246 245 246 246 247 250 254 251 248 250 247 245 246
232 226 236 233 238 245 246 243 236 235 236 238 239 237 242 245 248 250 250 250 249 248 248 247 249 252 255 253 251 249 246 247
235 234 237 237 237 249 250 251 240 234 233 236 238 239 241 246 250 251 253 256 257 257 254 251 252 252 254 256 255 254 249 246
243 242 245 251 261 267 270 266 238 232 232 235 238 239 241 246 247 249 253 257 259 261 262 261 258 258 260 260 258 256 256 253
251 262 273 276 269 269 271 266 234 228 231 233 235 237 240 239 241 246 251 254 257 258 262 267 266 268 265 264 262 262 257 257
266 271 290 285 269 265 266 258 233 231 229 228 228 230 229 235 241 245 250 251 251 250 255 262 265 261 267 265 264 263 260 260
269 285 286 298 267 252 258 243 229 227 224 221 219 219 227 235 240 243 244 247 245 241 244 251 256 261 262 259 264 261 261 263
296 310 303 288 252 242 249 225 218 217 212 209 213 220 226 231 234 236 236 239 238 237 244 256 253 261 265 258 261 260 262 259
290 301 319 296 257 243 234 215 209 204 204 208 214 218 221 223 227 228 232 237 237 236 243 250 256 261 265 263 265 264 265 262
305 300 313 309 275 246 219 207 201 202 207 208 209 212 214 216 220 224 232 236 239 240 242 248 256 260 268 261 263 266 267 261
295 304 309 308 287 239 211 204 204 205 205 208 209 209 210 211 216 223 229 229 232 234 235 244 257 263 265 263 261 262 254 236
295 302 309 297 276 232 210 208 209 209 211 209 208 208 206 208 212 214 214 214 216 221 229 236 244 253 256 256 249 245 213 204
314 310 299 284 269 238 218 216 214 213 212 210 206 206 203 205 209 203 203 207 212 220 230 243 252 249 250 241 224 206 202 200
308 318 308 294 287 277 249 232 225 222 217 213 210 209 205 205 201 199 202 205 205 217 232 244 234 236 222 200 196 200 204 203
289 292 300 304 301 287 276 257 239 231 226 219 215 214 212 210 201 200 203 205 206 206 227 228 230 218 207 208 210 205 201 196